Location: Unspecified
(0.0000°N, 0.0000°E)
Time: 20:04:32
(UTC+00:00)

JILIN-01-08 - Visible Passes

Search period start: 14 January 2025 00:00
Search period end: 24 January 2025 00:00
Orbit: 487 x 500 km, 97.2° (Epoch: 14 January)

Date Brightness Start Highest point End Pass type
(mag) Time Alt. Az. Time Alt. Az. Time Alt. Az.
14 Jan ? 19:48:55 10° SSW 19:52:06 28° W 19:55:16 10° NW visible
15 Jan ? 19:26:55 10° S 19:30:33 68° WSW 19:34:09 10° NNW visible
16 Jan ? 19:05:26 10° SSE 19:08:58 47° E 19:12:28 10° N visible
17 Jan ? 18:44:34 10° SE 18:47:22 21° E 18:50:09 10° NNE visible
18 Jan ? 19:56:17 10° SSW 19:59:08 22° W 20:01:58 10° NW visible
19 Jan ? 19:33:58 10° S 19:37:30 49° WSW 19:41:01 10° NNW visible
20 Jan ? 19:12:15 10° SSE 19:15:51 65° E 19:19:26 10° N visible
21 Jan ? 18:51:05 10° SE 18:54:11 27° E 18:57:17 10° NNE visible
22 Jan ? 20:03:28 10° SW 20:05:52 17° WSW 20:08:15 10° WNW visible
23 Jan ? 19:40:48 10° S 19:44:12 37° W 19:47:33 10° NNW visible
